Time,TemperatureF,DewpointF,PressureIn,WindDirection,WindDirectionDegrees,WindSpeedMPH,WindSpeedGustMPH,Humidity,HourlyPrecipIn,Conditions,Clouds,dailyrainin,SoftwareType,DateUTC
2013-01-22 00:00:00,43.2,23.1,29.64,North,0,0.0,0.0,45,0.00,,,0.00,WUHU21623XXSP,2013-01-22 05:00:00,
2013-01-22 00:01:00,43.2,23.1,29.64,North,0,0.0,0.0,45,0.00,,,0.00,WUHU21623XXSP,2013-01-22 05:01:00,
2013-01-22 00:02:00,43.2,23.1,29.64,North,0,0.0,0.0,45,0.00,,,0.00,WUHU21623XXSP,2013-01-22 05:02:00,
2013-01-22 00:08:00,43.0,23.5,29.63,North,0,0.0,0.0,46,0.00,,,0.00,WUHU21623XXSP,2013-01-22 05:08:00,
2013-01-22 00:13:00,42.6,23.2,29.63,North,0,0.0,0.0,46,0.00,,,0.00,WUHU21623XXSP,2013-01-22 05:13:00,
2013-01-22 00:18:00,42.4,23.0,29.63,North,0,0.0,0.0,46,0.00,,,0.00,WUHU21623XXSP,2013-01-22 05:18:00,
2013-01-22 00:23:00,42.4,23.0,29.63,North,0,0.0,0.0,46,0.00,,,0.00,WUHU21623XXSP,2013-01-22 05:23:00,
2013-01-22 00:29:00,42.1,22.7,29.63,North,0,0.0,0.0,46,0.00,,,0.00,WUHU21623XXSP,2013-01-22 05:29:00,
2013-01-22 00:34:00,41.9,23.0,29.63,North,0,0.0,0.0,47,0.00,,,0.00,WUHU21623XXSP,2013-01-22 05:34:00,
2013-01-22 00:39:00,41.7,22.8,29.63,North,0,0.0,0.0,47,0.00,,,0.00,WUHU21623XXSP,2013-01-22 05:39:00,
2013-01-22 00:44:00,41.5,22.7,29.63,North,0,0.0,0.0,47,0.00,,,0.00,WUHU21623XXSP,2013-01-22 05:44:00,
2013-01-22 00:49:00,41.5,22.7,29.63,North,0,0.0,0.0,47,0.00,,,0.00,WUHU21623XXSP,2013-01-22 05:49:00,
2013-01-22 00:54:00,41.4,22.5,29.63,North,0,0.0,0.0,47,0.00,,,0.00,WUHU21623XXSP,2013-01-22 05:54:00,
2013-01-22 00:59:00,41.4,22.5,29.63,North,0,0.0,0.0,47,0.00,,,0.00,WUHU21623XXSP,2013-01-22 05:59:00,
2013-01-22 01:04:00,41.4,22.5,29.63,North,0,0.0,0.0,47,0.00,,,0.00,WUHU21623XXSP,2013-01-22 06:04:00,
2013-01-22 01:09:00,41.2,22.3,29.63,North,0,0.0,0.0,47,0.00,,,0.00,WUHU21623XXSP,2013-01-22 06:09:00,
2013-01-22 01:14:00,41.0,22.2,29.63,North,0,0.0,0.0,47,0.00,,,0.00,WUHU21623XXSP,2013-01-22 06:14:00,
2013-01-22 01:19:00,40.8,22.0,29.64,North,0,0.0,0.0,47,0.00,,,0.00,WUHU21623XXSP,2013-01-22 06:19:00,
2013-01-22 01:24:00,40.8,22.0,29.64,North,0,0.0,0.0,47,0.00,,,0.00,WUHU21623XXSP,2013-01-22 06:24:00,
2013-01-22 01:29:00,40.6,21.8,29.64,North,0,0.0,0.0,47,0.00,,,0.00,WUHU21623XXSP,2013-01-22 06:29:00,
2013-01-22 01:35:00,40.5,21.7,29.64,North,0,0.0,0.0,47,0.00,,,0.00,WUHU21623XXSP,2013-01-22 06:35:00,
2013-01-22 01:40:00,40.5,21.7,29.64,NNW,337,0.0,0.0,47,0.00,,,0.00,WUHU21623XXSP,2013-01-22 06:40:00,
2013-01-22 01:45:00,40.5,21.7,29.64,NNW,337,0.0,0.0,47,0.00,,,0.00,WUHU21623XXSP,2013-01-22 06:45:00,
2013-01-22 01:50:00,40.3,21.5,29.64,NNW,337,0.0,0.0,47,0.00,,,0.00,WUHU21623XXSP,2013-01-22 06:50:00,
2013-01-22 01:55:00,40.1,21.9,29.64,NNE,22,0.0,0.0,48,0.00,,,0.00,WUHU21623XXSP,2013-01-22 06:55:00,
2013-01-22 02:00:00,39.9,21.7,29.64,NNE,22,0.0,0.0,48,0.00,,,0.00,WUHU21623XXSP,2013-01-22 07:00:00,
2013-01-22 02:05:00,39.7,21.5,29.65,NNE,22,0.0,0.0,48,0.00,,,0.00,WUHU21623XXSP,2013-01-22 07:05:00,
2013-01-22 02:10:00,39.6,21.4,29.65,North,0,0.0,0.0,48,0.00,,,0.00,WUHU21623XXSP,2013-01-22 07:10:00,
2013-01-22 02:15:00,39.4,21.2,29.65,North,0,0.0,0.0,48,0.00,,,0.00,WUHU21623XXSP,2013-01-22 07:15:00,
2013-01-22 02:20:00,39.2,21.1,29.65,North,0,0.0,0.0,48,0.00,,,0.00,WUHU21623XXSP,2013-01-22 07:20:00,
2013-01-22 02:25:00,39.0,20.9,29.65,North,0,0.0,0.0,48,0.00,,,0.00,WUHU21623XXSP,2013-01-22 07:25:00,
2013-01-22 02:30:00,39.0,20.9,29.65,North,0,0.0,0.0,48,0.00,,,0.00,WUHU21623XXSP,2013-01-22 07:30:00,
2013-01-22 02:35:00,38.8,20.7,29.65,North,0,0.0,0.0,48,0.00,,,0.00,WUHU21623XXSP,2013-01-22 07:35:00,
2013-01-22 02:40:00,38.8,20.7,29.65,North,0,0.0,0.0,48,0.00,,,0.00,WUHU21623XXSP,2013-01-22 07:40:00,
2013-01-22 02:45:00,38.5,20.4,29.65,North,0,0.0,0.0,48,0.00,,,0.00,WUHU21623XXSP,2013-01-22 07:45:00,
2013-01-22 02:50:00,38.5,20.4,29.65,North,0,0.0,0.0,48,0.00,,,0.00,WUHU21623XXSP,2013-01-22 07:50:00,
2013-01-22 02:55:00,38.3,20.8,29.65,North,0,0.0,0.0,49,0.00,,,0.00,WUHU21623XXSP,2013-01-22 07:55:00,
2013-01-22 03:00:00,38.1,20.1,29.64,North,0,0.0,0.0,48,0.00,,,0.00,WUHU21623XXSP,2013-01-22 08:00:00,
2013-01-22 03:05:00,37.9,20.4,29.65,North,0,0.0,0.0,49,0.00,,,0.00,WUHU21623XXSP,2013-01-22 08:05:00,
2013-01-22 03:10:00,37.8,20.3,29.65,North,0,0.0,0.0,49,0.00,,,0.00,WUHU21623XXSP,2013-01-22 08:10:00,
2013-01-22 03:15:00,37.8,20.3,29.65,North,0,0.0,0.0,49,0.00,,,0.00,WUHU21623XXSP,2013-01-22 08:15:00,
2013-01-22 03:20:00,37.6,20.1,29.65,North,0,0.0,0.0,49,0.00,,,0.00,WUHU21623XXSP,2013-01-22 08:20:00,
2013-01-22 03:25:00,37.2,19.8,29.65,North,0,0.0,0.0,49,0.00,,,0.00,WUHU21623XXSP,2013-01-22 08:25:00,
2013-01-22 03:30:00,37.2,20.3,29.65,North,0,0.0,0.0,50,0.00,,,0.00,WUHU21623XXSP,2013-01-22 08:30:00,
2013-01-22 03:35:00,36.9,20.0,29.65,North,0,0.0,0.0,50,0.00,,,0.00,WUHU21623XXSP,2013-01-22 08:35:00,
2013-01-22 03:40:00,36.9,20.0,29.65,North,0,0.0,0.0,50,0.00,,,0.00,WUHU21623XXSP,2013-01-22 08:40:00,
2013-01-22 03:45:00,36.5,20.1,29.65,North,0,0.0,0.0,51,0.00,,,0.00,WUHU21623XXSP,2013-01-22 08:45:00,
2013-01-22 03:50:00,36.3,19.5,29.65,North,0,0.0,0.0,50,0.00,,,0.00,WUHU21623XXSP,2013-01-22 08:50:00,
2013-01-22 03:55:00,36.3,19.5,29.65,North,0,0.0,0.0,50,0.00,,,0.00,WUHU21623XXSP,2013-01-22 08:55:00,
2013-01-22 04:00:00,36.3,19.5,29.64,NNW,337,0.0,0.0,50,0.00,,,0.00,WUHU21623XXSP,2013-01-22 09:00:00,
2013-01-22 04:05:00,36.1,19.8,29.64,NNW,337,0.0,0.0,51,0.00,,,0.00,WUHU21623XXSP,2013-01-22 09:05:00,
2013-01-22 04:10:00,36.0,19.6,29.65,NNW,337,0.0,0.0,51,0.00,,,0.00,WUHU21623XXSP,2013-01-22 09:10:00,
2013-01-22 04:15:00,36.0,19.6,29.65,NNW,337,0.0,0.0,51,0.00,,,0.00,WUHU21623XXSP,2013-01-22 09:15:00,
2013-01-22 04:20:00,35.8,19.5,29.65,NNW,337,0.0,0.0,51,0.00,,,0.00,WUHU21623XXSP,2013-01-22 09:20:00,
2013-01-22 04:25:00,35.6,19.3,29.65,NNW,337,0.0,0.0,51,0.00,,,0.00,WUHU21623XXSP,2013-01-22 09:25:00,
2013-01-22 04:30:00,35.4,19.1,29.65,NNW,337,0.0,0.0,51,0.00,,,0.00,WUHU21623XXSP,2013-01-22 09:30:00,
2013-01-22 04:35:00,35.4,19.5,29.65,NNW,337,0.0,0.0,52,0.00,,,0.00,WUHU21623XXSP,2013-01-22 09:35:00,
2013-01-22 04:40:00,35.2,19.4,29.65,NNW,337,0.0,0.0,52,0.00,,,0.00,WUHU21623XXSP,2013-01-22 09:40:00,
2013-01-22 04:45:00,34.9,19.0,29.65,NNW,337,0.0,0.0,52,0.00,,,0.00,WUHU21623XXSP,2013-01-22 09:45:00,
2013-01-22 04:51:00,34.9,19.0,29.65,NNW,337,0.0,0.0,52,0.00,,,0.00,WUHU21623XXSP,2013-01-22 09:51:00,
2013-01-22 04:56:00,34.7,18.8,29.65,NNW,337,0.0,0.0,52,0.00,,,0.00,WUHU21623XXSP,2013-01-22 09:56:00,
2013-01-22 05:01:00,34.7,18.8,29.65,NNW,337,0.0,0.0,52,0.00,,,0.00,WUHU21623XXSP,2013-01-22 10:01:00,
2013-01-22 05:06:00,34.5,18.6,29.65,NNW,337,0.0,0.0,52,0.00,,,0.00,WUHU21623XXSP,2013-01-22 10:06:00,
2013-01-22 05:11:00,34.3,18.5,29.65,NNW,337,0.0,0.0,52,0.00,,,0.00,WUHU21623XXSP,2013-01-22 10:11:00,
2013-01-22 05:16:00,34.3,18.5,29.65,NNW,337,0.0,0.0,52,0.00,,,0.00,WUHU21623XXSP,2013-01-22 10:16:00,
2013-01-22 05:21:00,34.3,18.5,29.66,NNW,337,0.0,0.0,52,0.00,,,0.00,WUHU21623XXSP,2013-01-22 10:21:00,
2013-01-22 05:26:00,34.5,18.6,29.66,NNW,337,0.0,0.0,52,0.00,,,0.00,WUHU21623XXSP,2013-01-22 10:26:00,
2013-01-22 05:31:00,34.3,18.5,29.66,NNW,337,0.0,0.0,52,0.00,,,0.00,WUHU21623XXSP,2013-01-22 10:31:00,
2013-01-22 05:36:00,34.3,18.5,29.66,NNW,337,0.0,0.0,52,0.00,,,0.00,WUHU21623XXSP,2013-01-22 10:36:00,
2013-01-22 05:41:00,34.3,18.5,29.66,NNW,337,0.0,0.0,52,0.00,,,0.00,WUHU21623XXSP,2013-01-22 10:41:00,
2013-01-22 05:46:00,34.3,18.5,29.67,NNW,337,0.0,0.0,52,0.00,,,0.00,WUHU21623XXSP,2013-01-22 10:46:00,
2013-01-22 05:51:00,34.3,18.5,29.67,NNW,337,0.0,0.0,52,0.00,,,0.00,WUHU21623XXSP,2013-01-22 10:51:00,
2013-01-22 05:56:00,34.3,18.5,29.67,NNW,337,0.0,0.0,52,0.00,,,0.00,WUHU21623XXSP,2013-01-22 10:56:00,
2013-01-22 06:01:00,34.2,18.3,29.67,NNW,337,0.0,0.0,52,0.00,,,0.00,WUHU21623XXSP,2013-01-22 11:01:00,
2013-01-22 06:06:00,34.0,18.1,29.68,NNW,337,0.0,0.0,52,0.00,,,0.00,WUHU21623XXSP,2013-01-22 11:06:00,
2013-01-22 06:11:00,33.8,18.4,29.68,NNW,337,0.0,0.0,53,0.00,,,0.00,WUHU21623XXSP,2013-01-22 11:11:00,
2013-01-22 06:16:00,33.6,18.2,29.68,NNW,337,0.0,0.0,53,0.00,,,0.00,WUHU21623XXSP,2013-01-22 11:16:00,
2013-01-22 06:21:00,33.6,18.2,29.68,NNW,337,0.0,0.0,53,0.00,,,0.00,WUHU21623XXSP,2013-01-22 11:21:00,
2013-01-22 06:27:00,33.6,18.2,29.69,NNW,337,0.0,0.0,53,0.00,,,0.00,WUHU21623XXSP,2013-01-22 11:27:00,
2013-01-22 06:32:00,33.4,18.0,29.69,NNW,337,0.0,0.0,53,0.00,,,0.00,WUHU21623XXSP,2013-01-22 11:32:00,
2013-01-22 06:37:00,33.4,18.0,29.70,NNW,337,0.0,0.0,53,0.00,,,0.00,WUHU21623XXSP,2013-01-22 11:37:00,
2013-01-22 06:42:00,33.4,18.0,29.70,NNW,337,0.0,0.0,53,0.00,,,0.00,WUHU21623XXSP,2013-01-22 11:42:00,
2013-01-22 06:47:00,33.4,18.0,29.70,NNW,337,0.0,0.0,53,0.00,,,0.00,WUHU21623XXSP,2013-01-22 11:47:00,
2013-01-22 06:52:00,33.3,17.9,29.70,NNW,337,0.0,0.0,53,0.00,,,0.00,WUHU21623XXSP,2013-01-22 11:52:00,
2013-01-22 06:57:00,33.1,17.7,29.70,NNW,337,0.0,0.0,53,0.00,,,0.00,WUHU21623XXSP,2013-01-22 11:57:00,
2013-01-22 07:02:00,33.1,17.7,29.70,NNW,337,0.0,0.0,53,0.00,,,0.00,WUHU21623XXSP,2013-01-22 12:02:00,
2013-01-22 07:07:00,33.1,17.7,29.71,NNW,337,0.0,0.0,53,0.00,,,0.00,WUHU21623XXSP,2013-01-22 12:07:00,
2013-01-22 07:12:00,33.1,17.7,29.71,NNW,337,0.0,0.0,53,0.00,,,0.00,WUHU21623XXSP,2013-01-22 12:12:00,
2013-01-22 07:17:00,32.9,17.5,29.71,NNW,337,0.0,0.0,53,0.00,,,0.00,WUHU21623XXSP,2013-01-22 12:17:00,
2013-01-22 07:22:00,32.9,17.5,29.72,NNW,337,0.0,0.0,53,0.00,,,0.00,WUHU21623XXSP,2013-01-22 12:22:00,
2013-01-22 07:27:00,32.9,17.5,29.72,NNW,337,0.0,0.0,53,0.00,,,0.00,WUHU21623XXSP,2013-01-22 12:27:00,
2013-01-22 07:32:00,32.7,17.4,29.72,NNW,337,0.0,0.0,53,0.00,,,0.00,WUHU21623XXSP,2013-01-22 12:32:00,
2013-01-22 07:37:00,32.7,17.4,29.72,NNW,337,0.0,0.0,53,0.00,,,0.00,WUHU21623XXSP,2013-01-22 12:37:00,
2013-01-22 07:42:00,32.7,17.4,29.72,NNW,337,0.0,0.0,53,0.00,,,0.00,WUHU21623XXSP,2013-01-22 12:42:00,
2013-01-22 07:47:00,32.7,17.4,29.73,NNW,337,0.0,0.0,53,0.00,,,0.00,WUHU21623XXSP,2013-01-22 12:47:00,
2013-01-22 07:52:00,32.7,17.8,29.73,NNW,337,0.0,0.0,54,0.00,,,0.00,WUHU21623XXSP,2013-01-22 12:52:00,
2013-01-22 07:57:00,32.7,17.8,29.72,NNW,337,0.0,0.0,54,0.00,,,0.00,WUHU21623XXSP,2013-01-22 12:57:00,
2013-01-22 08:02:00,33.1,18.1,29.73,NNW,337,0.0,0.0,54,0.00,,,0.00,WUHU21623XXSP,2013-01-22 13:02:00,
2013-01-22 08:07:00,33.1,18.1,29.73,NNW,337,0.0,0.0,54,0.00,,,0.00,WUHU21623XXSP,2013-01-22 13:07:00,
2013-01-22 08:12:00,33.4,18.5,29.73,NNW,337,0.0,0.0,54,0.00,,,0.00,WUHU21623XXSP,2013-01-22 13:12:00,
2013-01-22 08:17:00,33.8,18.8,29.73,NNW,337,0.0,0.0,54,0.00,,,0.00,WUHU21623XXSP,2013-01-22 13:17:00,
2013-01-22 08:22:00,34.0,18.5,29.73,NNW,337,0.0,1.3,53,0.00,,,0.00,WUHU21623XXSP,2013-01-22 13:22:00,
2013-01-22 08:27:00,34.3,18.9,29.74,NNW,337,0.0,1.3,53,0.00,,,0.00,WUHU21623XXSP,2013-01-22 13:27:00,
2013-01-22 08:32:00,34.5,18.6,29.74,NNW,337,0.0,0.0,52,0.00,,,0.00,WUHU21623XXSP,2013-01-22 13:32:00,
2013-01-22 08:38:00,35.4,19.5,29.74,NNW,337,0.0,4.5,52,0.00,,,0.00,WUHU21623XXSP,2013-01-22 13:38:00,
2013-01-22 08:43:00,36.9,20.4,29.74,NNE,22,0.0,4.5,51,0.00,,,0.00,WUHU21623XXSP,2013-01-22 13:43:00,
2013-01-22 08:48:00,38.5,21.5,29.75,North,0,0.0,1.6,50,0.00,,,0.00,WUHU21623XXSP,2013-01-22 13:48:00,
2013-01-22 08:53:00,39.6,21.4,29.75,NNW,337,0.0,2.5,48,0.00,,,0.00,WUHU21623XXSP,2013-01-22 13:53:00,
2013-01-22 08:58:00,40.3,21.0,29.75,NNW,337,0.0,2.5,46,0.00,,,0.00,WUHU21623XXSP,2013-01-22 13:58:00,
2013-01-22 09:03:00,40.8,21.5,29.75,North,0,0.0,1.1,46,0.00,,,0.00,WUHU21623XXSP,2013-01-22 14:03:00,
2013-01-22 09:08:00,41.5,21.6,29.75,North,0,0.0,4.3,45,0.00,,,0.00,WUHU21623XXSP,2013-01-22 14:08:00,
2013-01-22 09:13:00,42.1,21.6,29.75,NNW,337,0.0,4.3,44,0.00,,,0.00,WUHU21623XXSP,2013-01-22 14:13:00,
2013-01-22 09:18:00,42.4,20.9,29.75,North,0,0.0,6.3,42,0.00,,,0.00,WUHU21623XXSP,2013-01-22 14:18:00,
2013-01-22 09:23:00,42.6,20.5,29.76,North,0,2.7,8.7,41,0.00,,,0.00,WUHU21623XXSP,2013-01-22 14:23:00,
2013-01-22 09:28:00,42.8,21.2,29.76,North,0,0.0,8.7,42,0.00,,,0.00,WUHU21623XXSP,2013-01-22 14:28:00,
2013-01-22 09:33:00,43.9,21.6,29.76,NW,315,0.0,4.0,41,0.00,,,0.00,WUHU21623XXSP,2013-01-22 14:33:00,
2013-01-22 09:38:00,44.4,21.6,29.77,NNW,337,0.0,2.7,40,0.00,,,0.00,WUHU21623XXSP,2013-01-22 14:38:00,
2013-01-22 09:43:00,44.6,21.7,29.77,NNW,337,3.6,3.8,40,0.00,,,0.00,WUHU21623XXSP,2013-01-22 14:43:00,
2013-01-22 09:48:00,44.1,20.6,29.77,NW,315,0.0,4.9,39,0.00,,,0.00,WUHU21623XXSP,2013-01-22 14:48:00,
2013-01-22 09:53:00,43.0,20.3,29.77,North,0,0.0,4.9,40,0.00,,,0.00,WUHU21623XXSP,2013-01-22 14:53:00,
2013-01-22 09:58:00,44.1,20.6,29.77,North,0,0.0,5.1,39,0.00,,,0.00,WUHU21623XXSP,2013-01-22 14:58:00,
2013-01-22 10:03:00,44.2,20.2,29.77,North,0,0.0,5.6,39,0.00,,,0.00,WUHU21623XXSP,2013-01-22 15:03:00,
2013-01-22 10:08:00,45.5,21.2,29.77,North,0,0.0,5.6,38,0.00,,,0.00,WUHU21623XXSP,2013-01-22 15:08:00,
2013-01-22 10:13:00,46.8,22.4,29.78,North,0,0.0,0.0,38,0.00,,,0.00,WUHU21623XXSP,2013-01-22 15:13:00,
2013-01-22 10:18:00,47.3,22.2,29.78,NNW,337,0.0,0.0,37,0.00,,,0.00,WUHU21623XXSP,2013-01-22 15:18:00,
2013-01-22 10:23:00,47.8,22.0,29.78,North,0,0.0,0.0,36,0.00,,,0.00,WUHU21623XXSP,2013-01-22 15:23:00,
2013-01-22 10:28:00,48.4,21.8,29.78,NNW,337,0.0,6.9,35,0.00,,,0.00,WUHU21623XXSP,2013-01-22 15:28:00,
2013-01-22 10:34:00,49.8,23.0,29.78,NW,315,0.0,6.9,35,0.00,,,0.00,WUHU21623XXSP,2013-01-22 15:34:00,
2013-01-22 10:39:00,51.1,23.5,29.78,NW,315,0.0,0.0,34,0.00,,,0.00,WUHU21623XXSP,2013-01-22 15:39:00,
2013-01-22 10:45:00,52.2,23.8,29.78,WNW,292,0.0,0.0,33,0.00,,,0.00,WUHU21623XXSP,2013-01-22 15:45:00,
2013-01-22 10:50:00,52.7,24.2,29.79,WNW,292,0.0,0.0,33,0.00,,,0.00,WUHU21623XXSP,2013-01-22 15:50:00,
2013-01-22 10:55:00,53.4,24.2,29.79,North,0,0.0,0.0,32,0.00,,,0.00,WUHU21623XXSP,2013-01-22 15:55:00,
2013-01-22 11:00:00,54.3,24.9,29.79,North,0,0.0,0.0,32,0.00,,,0.00,WUHU21623XXSP,2013-01-22 16:00:00,
2013-01-22 11:05:00,55.2,25.0,29.79,North,0,0.0,0.0,31,0.00,,,0.00,WUHU21623XXSP,2013-01-22 16:05:00,
2013-01-22 11:10:00,55.9,25.6,29.79,NW,315,0.0,0.0,31,0.00,,,0.00,WUHU21623XXSP,2013-01-22 16:10:00,
2013-01-22 11:15:00,56.8,25.7,29.78,NW,315,0.0,0.0,30,0.00,,,0.00,WUHU21623XXSP,2013-01-22 16:15:00,
2013-01-22 11:20:00,57.0,24.9,29.79,North,0,0.0,4.0,29,0.00,,,0.00,WUHU21623XXSP,2013-01-22 16:20:00,
2013-01-22 11:25:00,57.0,24.9,29.78,NNE,22,0.0,4.0,29,0.00,,,0.00,WUHU21623XXSP,2013-01-22 16:25:00,
2013-01-22 11:30:00,58.1,25.9,29.78,North,0,0.0,1.8,29,0.00,,,0.00,WUHU21623XXSP,2013-01-22 16:30:00,
2013-01-22 11:35:00,59.0,25.7,29.78,NE,45,0.0,0.0,28,0.00,,,0.00,WUHU21623XXSP,2013-01-22 16:35:00,
2013-01-22 11:40:00,59.5,25.2,29.78,NNE,22,0.0,5.8,27,0.00,,,0.00,WUHU21623XXSP,2013-01-22 16:40:00,
2013-01-22 11:45:00,59.0,25.7,29.78,NNE,22,0.0,5.8,28,0.00,,,0.00,WUHU21623XXSP,2013-01-22 16:45:00,
2013-01-22 11:50:00,59.9,26.5,29.78,North,0,0.0,0.0,28,0.00,,,0.00,WUHU21623XXSP,2013-01-22 16:50:00,
2013-01-22 11:55:00,61.3,26.7,29.78,North,0,0.0,0.0,27,0.00,,,0.00,WUHU21623XXSP,2013-01-22 16:55:00,
2013-01-22 12:00:00,61.3,25.8,29.78,North,0,0.0,4.9,26,0.00,,,0.00,WUHU21623XXSP,2013-01-22 17:00:00,
2013-01-22 12:05:00,60.6,25.1,29.78,North,0,0.0,4.9,26,0.00,,,0.00,WUHU21623XXSP,2013-01-22 17:05:00,
2013-01-22 12:10:00,61.5,26.9,29.78,North,0,0.0,3.8,27,0.00,,,0.00,WUHU21623XXSP,2013-01-22 17:10:00,
2013-01-22 12:15:00,63.0,26.2,29.77,NNW,337,1.3,3.8,25,0.00,,,0.00,WUHU21623XXSP,2013-01-22 17:15:00,
2013-01-22 12:20:00,63.0,26.2,29.77,North,0,0.0,3.8,25,0.00,,,0.00,WUHU21623XXSP,2013-01-22 17:20:00,
2013-01-22 12:25:00,63.5,25.7,29.76,West,270,0.0,0.0,24,0.00,,,0.00,WUHU21623XXSP,2013-01-22 17:25:00,
2013-01-22 12:30:00,64.0,27.1,29.76,North,0,0.0,2.0,25,0.00,,,0.00,WUHU21623XXSP,2013-01-22 17:30:00,
2013-01-22 12:35:00,64.0,26.1,29.76,North,0,0.0,6.3,24,0.00,,,0.00,WUHU21623XXSP,2013-01-22 17:35:00,
2013-01-22 12:40:00,64.2,26.3,29.77,North,0,0.0,6.3,24,0.00,,,0.00,WUHU21623XXSP,2013-01-22 17:40:00,
2013-01-22 12:45:00,64.9,25.9,29.77,NNW,337,0.0,5.4,23,0.00,,,0.00,WUHU21623XXSP,2013-01-22 17:45:00,
2013-01-22 12:50:00,65.3,26.2,29.76,North,0,4.7,5.4,23,0.00,,,0.00,WUHU21623XXSP,2013-01-22 17:50:00,
2013-01-22 12:55:00,65.7,27.5,29.76,North,0,0.0,5.1,24,0.00,,,0.00,WUHU21623XXSP,2013-01-22 17:55:00,
2013-01-22 13:00:00,65.1,27.0,29.76,North,0,0.0,5.6,24,0.00,,,0.00,WUHU21623XXSP,2013-01-22 18:00:00,
2013-01-22 13:05:00,65.8,26.6,29.75,NNE,22,0.0,5.6,23,0.00,,,0.00,WUHU21623XXSP,2013-01-22 18:05:00,
2013-01-22 13:10:00,65.3,26.2,29.75,North,0,0.0,6.0,23,0.00,,,0.00,WUHU21623XXSP,2013-01-22 18:10:00,
2013-01-22 13:15:00,65.8,26.6,29.75,NW,315,0.0,6.0,23,0.00,,,0.00,WUHU21623XXSP,2013-01-22 18:15:00,
2013-01-22 13:20:00,66.6,27.2,29.74,WSW,247,2.9,3.6,23,0.00,,,0.00,WUHU21623XXSP,2013-01-22 18:20:00,
2013-01-22 13:26:00,66.7,27.4,29.75,WSW,247,0.0,2.9,23,0.00,,,0.00,WUHU21623XXSP,2013-01-22 18:26:00,
2013-01-22 13:31:00,68.9,28.2,29.74,WSW,247,0.0,2.9,22,0.00,,,0.00,WUHU21623XXSP,2013-01-22 18:31:00,
2013-01-22 13:36:00,69.4,27.7,29.74,WSW,247,0.0,5.1,21,0.00,,,0.00,WUHU21623XXSP,2013-01-22 18:36:00,
2013-01-22 13:41:00,68.2,25.7,29.74,WSW,247,0.0,5.1,20,0.00,,,0.00,WUHU21623XXSP,2013-01-22 18:41:00,
2013-01-22 13:46:00,67.1,26.7,29.75,WSW,247,0.0,5.4,22,0.00,,,0.00,WUHU21623XXSP,2013-01-22 18:46:00,
2013-01-22 13:51:00,66.9,26.5,29.74,WSW,247,0.0,5.4,22,0.00,,,0.00,WUHU21623XXSP,2013-01-22 18:51:00,
2013-01-22 13:56:00,67.3,26.9,29.74,WSW,247,0.0,5.4,22,0.00,,,0.00,WUHU21623XXSP,2013-01-22 18:56:00,
2013-01-22 14:01:00,66.9,26.5,29.74,WSW,247,0.0,4.7,22,0.00,,,0.00,WUHU21623XXSP,2013-01-22 19:01:00,
2013-01-22 14:06:00,66.9,26.5,29.74,North,0,0.0,3.8,22,0.00,,,0.00,WUHU21623XXSP,2013-01-22 19:06:00,
2013-01-22 14:11:00,63.0,24.2,29.74,North,0,0.0,0.0,23,0.00,,,0.00,WUHU21623XXSP,2013-01-22 19:11:00,
2013-01-22 14:16:00,56.1,20.4,29.74,NNW,337,0.0,6.7,25,0.00,,,0.00,WUHU21623XXSP,2013-01-22 19:16:00,
2013-01-22 14:21:00,55.0,20.4,29.75,NNE,22,6.3,7.4,26,0.00,,,0.00,WUHU21623XXSP,2013-01-22 19:21:00,
2013-01-22 14:26:00,54.3,19.8,29.75,North,0,0.0,7.4,26,0.00,,,0.00,WUHU21623XXSP,2013-01-22 19:26:00,
2013-01-22 14:32:00,52.0,18.7,29.75,NNW,337,0.0,6.3,27,0.00,,,0.00,WUHU21623XXSP,2013-01-22 19:32:00,
2013-01-22 14:37:00,52.0,19.7,29.75,North,0,0.0,7.8,28,0.00,,,0.00,WUHU21623XXSP,2013-01-22 19:37:00,
2013-01-22 14:42:00,56.8,21.9,29.75,North,0,3.1,7.8,26,0.00,,,0.00,WUHU21623XXSP,2013-01-22 19:42:00,
2013-01-22 14:47:00,60.6,23.2,29.74,WSW,247,5.1,7.8,24,0.00,,,0.00,WUHU21623XXSP,2013-01-22 19:47:00,
2013-01-22 14:52:00,61.2,23.7,29.75,WSW,247,4.3,7.8,24,0.00,,,0.00,WUHU21623XXSP,2013-01-22 19:52:00,
2013-01-22 14:57:00,63.1,24.4,29.75,WSW,247,0.0,6.5,23,0.00,,,0.00,WUHU21623XXSP,2013-01-22 19:57:00,
2013-01-22 15:02:00,64.0,25.1,29.74,WSW,247,0.0,5.1,23,0.00,,,0.00,WUHU21623XXSP,2013-01-22 20:02:00,
2013-01-22 15:07:00,64.2,25.3,29.75,WSW,247,0.0,5.1,23,0.00,,,0.00,WUHU21623XXSP,2013-01-22 20:07:00,
2013-01-22 15:12:00,65.8,26.6,29.75,WSW,247,0.0,3.1,23,0.00,,,0.00,WUHU21623XXSP,2013-01-22 20:12:00,
2013-01-22 15:17:00,65.7,25.5,29.74,WSW,247,5.4,8.3,22,0.00,,,0.00,WUHU21623XXSP,2013-01-22 20:17:00,
2013-01-22 15:22:00,63.1,23.4,29.74,WSW,247,0.0,8.3,22,0.00,,,0.00,WUHU21623XXSP,2013-01-22 20:22:00,
2013-01-22 15:27:00,63.3,24.5,29.74,WSW,247,0.0,7.8,23,0.00,,,0.00,WUHU21623XXSP,2013-01-22 20:27:00,
2013-01-22 15:33:00,63.0,23.3,29.75,WSW,247,2.7,6.3,22,0.00,,,0.00,WUHU21623XXSP,2013-01-22 20:33:00,
2013-01-22 15:38:00,63.0,24.2,29.74,WSW,247,0.0,6.3,23,0.00,,,0.00,WUHU21623XXSP,2013-01-22 20:38:00,
2013-01-22 15:43:00,64.9,24.9,29.74,WSW,247,2.2,5.8,22,0.00,,,0.00,WUHU21623XXSP,2013-01-22 20:43:00,
2013-01-22 15:48:00,64.2,23.3,29.74,WSW,247,0.0,8.3,21,0.00,,,0.00,WUHU21623XXSP,2013-01-22 20:48:00,
2013-01-22 15:53:00,63.1,23.4,29.74,WSW,247,0.0,8.3,22,0.00,,,0.00,WUHU21623XXSP,2013-01-22 20:53:00,
2013-01-22 15:58:00,63.0,24.2,29.73,WSW,247,0.0,3.4,23,0.00,,,0.00,WUHU21623XXSP,2013-01-22 20:58:00,
2013-01-22 16:03:00,64.0,25.1,29.73,North,0,0.0,0.0,23,0.00,,,0.00,WUHU21623XXSP,2013-01-22 21:03:00,
2013-01-22 16:08:00,61.0,23.5,29.74,North,0,0.0,0.0,24,0.00,,,0.00,WUHU21623XXSP,2013-01-22 21:08:00,
2013-01-22 16:13:00,57.4,20.5,29.74,North,0,0.0,0.0,24,0.00,,,0.00,WUHU21623XXSP,2013-01-22 21:13:00,
2013-01-22 16:18:00,53.4,20.0,29.74,North,0,0.0,0.0,27,0.00,,,0.00,WUHU21623XXSP,2013-01-22 21:18:00,
2013-01-22 16:23:00,51.1,18.9,29.74,North,0,0.0,0.0,28,0.00,,,0.00,WUHU21623XXSP,2013-01-22 21:23:00,
2013-01-22 16:28:00,49.6,18.5,29.74,NNW,337,0.0,0.0,29,0.00,,,0.00,WUHU21623XXSP,2013-01-22 21:28:00,
2013-01-22 16:31:00,49.1,18.1,29.75,NNW,337,0.0,0.0,29,0.00,,,0.00,WUHU21623XXSP,2013-01-22 21:31:00,
2013-01-22 16:36:00,48.4,19.1,29.75,North,0,0.0,0.0,31,0.00,,,0.00,WUHU21623XXSP,2013-01-22 21:36:00,
2013-01-22 16:41:00,47.7,18.5,29.75,North,0,0.0,0.0,31,0.00,,,0.00,WUHU21623XXSP,2013-01-22 21:41:00,
2013-01-22 16:46:00,47.1,18.0,29.75,North,0,0.0,0.0,31,0.00,,,0.00,WUHU21623XXSP,2013-01-22 21:46:00,
2013-01-22 16:51:00,47.1,18.7,29.75,North,0,0.0,0.0,32,0.00,,,0.00,WUHU21623XXSP,2013-01-22 21:51:00,
2013-01-22 16:56:00,46.8,18.4,29.75,North,0,0.0,0.0,32,0.00,,,0.00,WUHU21623XXSP,2013-01-22 21:56:00,
2013-01-22 17:01:00,46.4,18.0,29.75,North,0,0.0,0.0,32,0.00,,,0.00,WUHU21623XXSP,2013-01-22 22:01:00,
2013-01-22 17:06:00,46.2,17.9,29.75,North,0,0.0,0.0,32,0.00,,,0.00,WUHU21623XXSP,2013-01-22 22:06:00,
2013-01-22 17:11:00,46.0,18.4,29.75,North,0,0.0,0.0,33,0.00,,,0.00,WUHU21623XXSP,2013-01-22 22:11:00,
2013-01-22 17:16:00,46.0,18.4,29.75,North,0,0.0,0.0,33,0.00,,,0.00,WUHU21623XXSP,2013-01-22 22:16:00,
2013-01-22 17:21:00,45.7,18.0,29.75,NNW,337,0.0,0.0,33,0.00,,,0.00,WUHU21623XXSP,2013-01-22 22:21:00,
2013-01-22 17:27:00,45.3,17.7,29.76,NNW,337,0.0,0.0,33,0.00,,,0.00,WUHU21623XXSP,2013-01-22 22:27:00,
2013-01-22 17:32:00,45.1,17.6,29.76,North,0,0.0,2.0,33,0.00,,,0.00,WUHU21623XXSP,2013-01-22 22:32:00,
2013-01-22 17:37:00,45.0,18.1,29.76,North,0,0.0,2.0,34,0.00,,,0.00,WUHU21623XXSP,2013-01-22 22:37:00,
2013-01-22 17:42:00,44.8,17.9,29.76,North,0,0.0,0.0,34,0.00,,,0.00,WUHU21623XXSP,2013-01-22 22:42:00,
2013-01-22 17:47:00,44.4,17.6,29.76,North,0,0.0,0.0,34,0.00,,,0.00,WUHU21623XXSP,2013-01-22 22:47:00,
2013-01-22 17:52:00,43.9,17.8,29.76,North,0,0.0,0.0,35,0.00,,,0.00,WUHU21623XXSP,2013-01-22 22:52:00,
2013-01-22 17:57:00,43.3,17.9,29.76,North,0,0.0,0.0,36,0.00,,,0.00,WUHU21623XXSP,2013-01-22 22:57:00,
2013-01-22 18:02:00,42.8,17.5,29.76,North,0,0.0,0.0,36,0.00,,,0.00,WUHU21623XXSP,2013-01-22 23:02:00,
2013-01-22 18:07:00,42.1,17.5,29.76,North,0,0.0,0.0,37,0.00,,,0.00,WUHU21623XXSP,2013-01-22 23:07:00,
2013-01-22 18:12:00,41.7,17.8,29.76,North,0,0.0,0.0,38,0.00,,,0.00,WUHU21623XXSP,2013-01-22 23:12:00,
2013-01-22 18:17:00,41.4,17.5,29.76,North,0,0.0,0.0,38,0.00,,,0.00,WUHU21623XXSP,2013-01-22 23:17:00,
2013-01-22 18:22:00,40.8,17.7,29.77,North,0,0.0,0.0,39,0.00,,,0.00,WUHU21623XXSP,2013-01-22 23:22:00,
2013-01-22 18:27:00,40.8,17.7,29.77,North,0,0.0,0.0,39,0.00,,,0.00,WUHU21623XXSP,2013-01-22 23:27:00,
2013-01-22 18:32:00,40.5,18.0,29.77,North,0,0.0,0.0,40,0.00,,,0.00,WUHU21623XXSP,2013-01-22 23:32:00,
2013-01-22 18:37:00,39.9,18.0,29.77,North,0,0.0,0.0,41,0.00,,,0.00,WUHU21623XXSP,2013-01-22 23:37:00,
2013-01-22 18:42:00,39.6,17.7,29.77,North,0,0.0,0.0,41,0.00,,,0.00,WUHU21623XXSP,2013-01-22 23:42:00,
2013-01-22 18:47:00,39.0,17.2,29.77,North,0,0.0,0.0,41,0.00,,,0.00,WUHU21623XXSP,2013-01-22 23:47:00,
2013-01-22 18:52:00,38.8,17.1,29.77,North,0,0.0,0.0,41,0.00,,,0.00,WUHU21623XXSP,2013-01-22 23:52:00,
2013-01-22 18:57:00,38.7,16.9,29.77,North,0,0.0,0.0,41,0.00,,,0.00,WUHU21623XXSP,2013-01-22 23:57:00,
2013-01-22 19:02:00,38.5,17.8,29.78,North,0,0.0,0.0,43,0.00,,,0.00,WUHU21623XXSP,2013-01-23 00:02:00,
2013-01-22 19:08:00,38.5,17.8,29.77,North,0,0.0,0.0,43,0.00,,,0.00,WUHU21623XXSP,2013-01-23 00:08:00,
2013-01-22 19:13:00,38.3,17.6,29.77,North,0,0.0,0.0,43,0.00,,,0.00,WUHU21623XXSP,2013-01-23 00:13:00,
2013-01-22 19:18:00,38.3,18.2,29.77,North,0,0.0,0.0,44,0.00,,,0.00,WUHU21623XXSP,2013-01-23 00:18:00,
2013-01-22 19:23:00,38.1,18.0,29.77,North,0,0.0,0.0,44,0.00,,,0.00,WUHU21623XXSP,2013-01-23 00:23:00,
2013-01-22 19:28:00,37.9,17.8,29.77,North,0,0.0,0.0,44,0.00,,,0.00,WUHU21623XXSP,2013-01-23 00:28:00,
2013-01-22 19:33:00,37.4,17.9,29.77,North,0,0.0,0.0,45,0.00,,,0.00,WUHU21623XXSP,2013-01-23 00:33:00,
2013-01-22 19:38:00,37.2,18.2,29.77,North,0,0.0,0.0,46,0.00,,,0.00,WUHU21623XXSP,2013-01-23 00:38:00,
2013-01-22 19:43:00,37.2,18.2,29.77,North,0,0.0,0.0,46,0.00,,,0.00,WUHU21623XXSP,2013-01-23 00:43:00,
2013-01-22 19:48:00,37.4,18.9,29.77,North,0,0.0,0.0,47,0.00,,,0.00,WUHU21623XXSP,2013-01-23 00:48:00,
2013-01-22 19:53:00,37.6,19.1,29.78,North,0,0.0,0.0,47,0.00,,,0.00,WUHU21623XXSP,2013-01-23 00:53:00,
2013-01-22 19:58:00,37.2,18.8,29.78,North,0,0.0,0.0,47,0.00,,,0.00,WUHU21623XXSP,2013-01-23 00:58:00,
2013-01-22 20:03:00,37.2,18.8,29.78,North,0,0.0,0.0,47,0.00,,,0.00,WUHU21623XXSP,2013-01-23 01:03:00,
2013-01-22 20:08:00,37.0,18.6,29.78,North,0,0.0,0.0,47,0.00,,,0.00,WUHU21623XXSP,2013-01-23 01:08:00,
2013-01-22 20:13:00,37.0,18.6,29.78,North,0,0.0,0.0,47,0.00,,,0.00,WUHU21623XXSP,2013-01-23 01:13:00,
2013-01-22 20:18:00,36.7,18.3,29.78,North,0,0.0,0.0,47,0.00,,,0.00,WUHU21623XXSP,2013-01-23 01:18:00,
2013-01-22 20:23:00,36.7,18.8,29.78,North,0,0.0,0.0,48,0.00,,,0.00,WUHU21623XXSP,2013-01-23 01:23:00,
2013-01-22 20:28:00,36.7,19.3,29.78,North,0,0.0,0.0,49,0.00,,,0.00,WUHU21623XXSP,2013-01-23 01:28:00,
2013-01-22 20:33:00,36.5,18.6,29.78,North,0,0.0,0.0,48,0.00,,,0.00,WUHU21623XXSP,2013-01-23 01:33:00,
2013-01-22 20:38:00,36.5,19.1,29.79,North,0,0.0,0.0,49,0.00,,,0.00,WUHU21623XXSP,2013-01-23 01:38:00,
2013-01-22 20:43:00,36.5,19.1,29.79,North,0,0.0,0.0,49,0.00,,,0.00,WUHU21623XXSP,2013-01-23 01:43:00,
2013-01-22 20:48:00,36.9,19.5,29.79,North,0,0.0,0.0,49,0.00,,,0.00,WUHU21623XXSP,2013-01-23 01:48:00,
2013-01-22 20:53:00,37.2,19.3,29.79,North,0,0.0,0.0,48,0.00,,,0.00,WUHU21623XXSP,2013-01-23 01:53:00,
2013-01-22 20:58:00,37.6,19.6,29.79,NNW,337,0.0,0.0,48,0.00,,,0.00,WUHU21623XXSP,2013-01-23 01:58:00,
2013-01-22 21:03:00,37.9,19.4,29.79,NNW,337,0.0,0.0,47,0.00,,,0.00,WUHU21623XXSP,2013-01-23 02:03:00,
2013-01-22 21:08:00,37.9,18.9,29.80,NNW,337,0.0,0.0,46,0.00,,,0.00,WUHU21623XXSP,2013-01-23 02:08:00,
2013-01-22 21:13:00,38.1,19.0,29.79,NNW,337,0.0,0.0,46,0.00,,,0.00,WUHU21623XXSP,2013-01-23 02:13:00,
2013-01-22 21:18:00,38.1,19.0,29.80,NNW,337,0.0,0.0,46,0.00,,,0.00,WUHU21623XXSP,2013-01-23 02:18:00,
2013-01-22 21:23:00,37.9,18.9,29.81,NNW,337,0.0,0.0,46,0.00,,,0.00,WUHU21623XXSP,2013-01-23 02:23:00,
2013-01-22 21:29:00,37.9,18.4,29.81,NNW,337,0.0,0.0,45,0.00,,,0.00,WUHU21623XXSP,2013-01-23 02:29:00,
2013-01-22 21:34:00,37.9,18.4,29.81,North,0,0.0,0.0,45,0.00,,,0.00,WUHU21623XXSP,2013-01-23 02:34:00,
2013-01-22 21:39:00,37.8,18.2,29.81,North,0,0.0,0.0,45,0.00,,,0.00,WUHU21623XXSP,2013-01-23 02:39:00,
2013-01-22 21:44:00,37.6,18.0,29.81,North,0,0.0,0.0,45,0.00,,,0.00,WUHU21623XXSP,2013-01-23 02:44:00,
2013-01-22 21:49:00,37.6,18.0,29.81,North,0,0.0,0.0,45,0.00,,,0.00,WUHU21623XXSP,2013-01-23 02:49:00,
2013-01-22 21:54:00,37.4,17.9,29.81,North,0,0.0,0.0,45,0.00,,,0.00,WUHU21623XXSP,2013-01-23 02:54:00,
2013-01-22 21:59:00,37.4,17.9,29.81,North,0,0.0,0.0,45,0.00,,,0.00,WUHU21623XXSP,2013-01-23 02:59:00,
2013-01-22 22:04:00,37.2,17.7,29.81,North,0,0.0,0.0,45,0.00,,,0.00,WUHU21623XXSP,2013-01-23 03:04:00,
2013-01-22 22:09:00,37.2,17.7,29.81,WNW,292,0.0,0.0,45,0.00,,,0.00,WUHU21623XXSP,2013-01-23 03:09:00,
2013-01-22 22:14:00,37.0,17.5,29.82,WNW,292,0.0,0.0,45,0.00,,,0.00,WUHU21623XXSP,2013-01-23 03:14:00,
2013-01-22 22:19:00,36.9,17.4,29.82,North,0,0.0,0.0,45,0.00,,,0.00,WUHU21623XXSP,2013-01-23 03:19:00,
2013-01-22 22:24:00,36.7,17.2,29.83,North,0,0.0,0.0,45,0.00,,,0.00,WUHU21623XXSP,2013-01-23 03:24:00,
2013-01-22 22:30:00,36.5,17.1,29.83,North,0,0.0,0.0,45,0.00,,,0.00,WUHU21623XXSP,2013-01-23 03:30:00,
2013-01-22 22:35:00,36.3,16.9,29.83,North,0,0.0,0.0,45,0.00,,,0.00,WUHU21623XXSP,2013-01-23 03:35:00,
2013-01-22 22:40:00,36.3,16.9,29.82,North,0,0.0,0.0,45,0.00,,,0.00,WUHU21623XXSP,2013-01-23 03:40:00,
2013-01-22 22:45:00,36.1,17.3,29.82,North,0,0.0,0.0,46,0.00,,,0.00,WUHU21623XXSP,2013-01-23 03:45:00,
2013-01-22 22:50:00,36.0,17.1,29.82,North,0,0.0,0.0,46,0.00,,,0.00,WUHU21623XXSP,2013-01-23 03:50:00,
2013-01-22 22:55:00,35.8,16.9,29.83,North,0,0.0,0.0,46,0.00,,,0.00,WUHU21623XXSP,2013-01-23 03:55:00,
2013-01-22 23:00:00,35.8,16.9,29.83,North,0,0.0,0.0,46,0.00,,,0.00,WUHU21623XXSP,2013-01-23 04:00:00,
2013-01-22 23:05:00,35.4,16.6,29.83,North,0,0.0,0.0,46,0.00,,,0.00,WUHU21623XXSP,2013-01-23 04:05:00,
2013-01-22 23:10:00,35.4,16.6,29.83,North,0,0.0,0.0,46,0.00,,,0.00,WUHU21623XXSP,2013-01-23 04:10:00,
2013-01-22 23:15:00,35.4,16.6,29.83,North,0,0.0,0.0,46,0.00,,,0.00,WUHU21623XXSP,2013-01-23 04:15:00,
2013-01-22 23:20:00,35.2,16.9,29.83,North,0,0.0,0.0,47,0.00,,,0.00,WUHU21623XXSP,2013-01-23 04:20:00,
2013-01-22 23:25:00,34.9,16.6,29.83,North,0,0.0,0.0,47,0.00,,,0.00,WUHU21623XXSP,2013-01-23 04:25:00,
2013-01-22 23:30:00,34.7,16.4,29.83,North,0,0.0,0.0,47,0.00,,,0.00,WUHU21623XXSP,2013-01-23 04:30:00,
2013-01-22 23:35:00,34.5,16.2,29.83,North,0,0.0,0.0,47,0.00,,,0.00,WUHU21623XXSP,2013-01-23 04:35:00,
2013-01-22 23:40:00,34.3,16.1,29.83,North,0,0.0,0.0,47,0.00,,,0.00,WUHU21623XXSP,2013-01-23 04:40:00,
2013-01-22 23:45:00,34.3,16.1,29.83,North,0,0.0,0.0,47,0.00,,,0.00,WUHU21623XXSP,2013-01-23 04:45:00,
2013-01-22 23:50:00,34.3,16.6,29.83,North,0,0.0,0.0,48,0.00,,,0.00,WUHU21623XXSP,2013-01-23 04:50:00,
2013-01-22 23:55:00,34.2,16.4,29.83,North,0,0.0,0.0,48,0.00,,,0.00,WUHU21623XXSP,2013-01-23 04:55:00,